IT9IJI-13 Weather Reports


Display with metric or nautical units.
time (UTC)temp
F
wind
direction
speed
MPH
gust
MPH
rain 1hr
in
rain 24hr
in
rain mn
in
humidity
%
barometer
mb
20260505121903 72 99 1.0 7.0 0.00 0.00 0.00 57 1017.2
20260505121803 72 98 1.0 7.0 0.00 0.00 0.00 57 1017.2
20260505121703 72 101 1.0 7.0 0.00 0.00 0.00 57 1017.4
20260505121603 72 103 1.0 7.0 0.00 0.00 0.00 57 1017.4
20260505121503 72 104 1.0 7.0 0.00 0.00 0.00 56 1017.4
20260505121403 72 104 1.0 7.0 0.00 0.00 0.00 56 1017.4
20260505121303 72 107 1.0 7.0 0.00 0.00 0.00 57 1017.4
20260505121203 72 111 1.0 7.0 0.00 0.00 0.00 57 1017.4
20260505121103 72 116 1.0 7.0 0.00 0.00 0.00 57 1017.3
20260505121003 72 114 1.0 7.0 0.00 0.00 0.00 57 1017.4
20260505120903 72 114 1.0 7.0 0.00 0.00 0.00 56 1017.4
20260505120803 72 114 1.0 7.0 0.00 0.00 0.00 56 1017.4
20260505120703 72 114 1.0 7.0 0.00 0.00 0.00 56 1017.3
20260505120603 72 115 1.0 7.0 0.00 0.00 0.00 56 1017.4
20260505120503 72 116 1.0 7.0 0.00 0.00 0.00 56 1017.5
20260505120403 72 117 1.0 7.0 0.00 0.00 0.00 56 1017.5
20260505120303 72 116 1.0 7.0 0.00 0.00 0.00 57 1017.4
20260505120203 72 113 1.0 7.0 0.00 0.00 0.00 57 1017.4
20260505120103 72 107 1.0 7.0 0.00 0.00 0.00 57 1017.3
20260505120004 72 110 1.0 7.0 0.00 0.00 0.00 57 1017.5
20260505115903 72 110 1.0 7.0 0.00 0.00 0.00 57 1017.4
20260505115803 72 107 1.0 7.0 0.00 0.00 0.00 57 1017.3
20260505115703 72 106 1.0 7.0 0.00 0.00 0.00 57 1017.3
20260505115603 72 106 1.0 7.0 0.00 0.00 0.00 57 1017.3
20260505115503 72 105 1.0 7.0 0.00 0.00 0.00 57 1017.3
20260505115403 72 101 1.0 5.0 0.00 0.00 0.00 57 1017.4
20260505115305 72 100 1.0 5.0 0.00 0.00 0.00 57 1017.5
20260505115203 72 95 1.0 5.0 0.00 0.00 0.00 57 1017.4
20260505115103 73 98 1.0 5.0 0.00 0.00 0.00 57 1017.5
20260505115003 73 99 1.0 5.0 0.00 0.00 0.00 57 1017.5
20260505114903 73 107 1.0 5.0 0.00 0.00 0.00 57 1017.4
20260505114803 73 125 1.0 5.0 0.00 0.00 0.00 57 1017.5
20260505114703 73 132 1.0 5.0 0.00 0.00 0.00 57 1017.5
20260505114603 73 115 1.0 6.0 0.00 0.00 0.00 57 1017.5
20260505114503 73 110 1.0 6.0 0.00 0.00 0.00 57 1017.4
20260505114403 73 111 1.0 6.0 0.00 0.00 0.00 57 1017.5
20260505114303 73 112 1.0 6.0 0.00 0.00 0.00 58 1017.5
20260505114203 73 112 1.0 6.0 0.00 0.00 0.00 57 1017.4
20260505114103 73 114 1.0 6.0 0.00 0.00 0.00 58 1017.4
20260505114003 73 110 1.0 6.0 0.00 0.00 0.00 58 1017.5
20260505113903 73 109 1.0 6.0 0.00 0.00 0.00 58 1017.4
20260505113803 73 109 2.0 6.0 0.00 0.00 0.00 58 1017.4
20260505113703 73 109 2.0 6.0 0.00 0.00 0.00 58 1017.5
20260505113603 73 109 2.0 6.0 0.00 0.00 0.00 58 1017.6
20260505113503 73 110 1.0 6.0 0.00 0.00 0.00 58 1017.6
20260505113403 73 109 1.0 6.0 0.00 0.00 0.00 58 1017.5
20260505113303 73 108 1.0 6.0 0.00 0.00 0.00 58 1017.5
20260505113203 73 108 1.0 6.0 0.00 0.00 0.00 58 1017.5
20260505113103 73 108 1.0 6.0 0.00 0.00 0.00 58 1017.5
20260505113003 73 112 1.0 6.0 0.00 0.00 0.00 59 1017.5
20260505112903 73 110 1.0 5.0 0.00 0.00 0.00 59 1017.5
20260505112803 73 109 1.0 5.0 0.00 0.00 0.00 60 1017.6
20260505112703 72 107 1.0 5.0 0.00 0.00 0.00 60 1017.5
20260505112604 72 104 1.0 5.0 0.00 0.00 0.00 60 1017.6
20260505112504 72 106 1.0 5.0 0.00 0.00 0.00 60 1017.6
20260505112404 72 108 1.0 5.0 0.00 0.00 0.00 60 1017.6
20260505112305 72 108 1.0 5.0 0.00 0.00 0.00 61 1017.6
20260505112204 72 107 1.0 5.0 0.00 0.00 0.00 61 1017.7
20260505112104 72 107 1.0 5.0 0.00 0.00 0.00 61 1017.6
20260505112004 72 106 1.0 5.0 0.00 0.00 0.00 61 1017.7
20260505111904 72 106 2.0 5.0 0.00 0.00 0.00 61 1017.7
20260505111804 72 105 1.0 5.0 0.00 0.00 0.00 61 1017.6
20260505111704 72 108 2.0 5.0 0.00 0.00 0.00 62 1017.7
20260505111604 72 109 2.0 5.0 0.00 0.00 0.00 62 1017.6
20260505111504 72 109 2.0 5.0 0.00 0.00 0.00 62 1017.6
20260505111404 72 109 2.0 5.0 0.00 0.00 0.00 61 1017.7
20260505111304 72 109 2.0 5.0 0.00 0.00 0.00 62 1017.6
20260505111204 72 110 1.0 5.0 0.00 0.00 0.00 62 1017.6
20260505111104 71 110 2.0 5.0 0.00 0.00 0.00 62 1017.6
20260505111004 71 110 2.0 5.0 0.00 0.00 0.00 62 1017.6
20260505110904 71 111 2.0 6.0 0.00 0.00 0.00 61 1017.7
20260505110804 71 113 2.0 6.0 0.00 0.00 0.00 62 1017.6
20260505110704 71 111 2.0 6.0 0.00 0.00 0.00 62 1017.6
20260505110604 71 112 2.0 6.0 0.00 0.00 0.00 62 1017.7
20260505110504 71 108 2.0 6.0 0.00 0.00 0.00 62 1017.6
20260505110404 71 110 2.0 6.0 0.00 0.00 0.00 62 1017.6
20260505110304 71 109 2.0 6.0 0.00 0.00 0.00 62 1017.6
20260505110204 71 109 2.0 6.0 0.00 0.00 0.00 62 1017.6
20260505110104 71 107 2.0 6.0 0.00 0.00 0.00 62 1017.5
20260505102203 73 112 1.0 8.0 0.00 0.00 0.00 61 1017.8
20260505102103 73 113 1.0 8.0 0.00 0.00 0.00 61 1017.7
20260505102004 73 115 1.0 8.0 0.00 0.00 0.00 60 1017.7
20260505101903 73 115 1.0 8.0 0.00 0.00 0.00 60 1017.7
20260505101803 73 114 1.0 8.0 0.00 0.00 0.00 60 1017.8
20260505101704 73 114 1.0 8.0 0.00 0.00 0.00 60 1017.8
20260505101603 73 114 1.0 8.0 0.00 0.00 0.00 60 1017.8
20260505101503 73 115 1.0 8.0 0.00 0.00 0.00 60 1017.9
20260505101403 74 115 1.0 6.0 0.00 0.00 0.00 60 1017.8
20260505101303 73 113 1.0 5.0 0.00 0.00 0.00 60 1017.8
20260505101203 73 109 1.0 5.0 0.00 0.00 0.00 60 1017.8
20260505101103 73 107 1.0 5.0 0.00 0.00 0.00 60 1017.7
20260505101003 73 104 1.0 5.0 0.00 0.00 0.00 60 1017.8
20260505100903 73 103 1.0 5.0 0.00 0.00 0.00 60 1017.7
20260505100803 73 108 1.0 4.0 0.00 0.00 0.00 60 1017.8
20260505100703 73 109 1.0 4.0 0.00 0.00 0.00 60 1017.8
20260505100603 73 110 1.0 4.0 0.00 0.00 0.00 60 1017.9
20260505100503 73 110 1.0 5.0 0.00 0.00 0.00 60 1017.9
20260505100403 73 110 1.0 6.0 0.00 0.00 0.00 60 1017.8
20260505100303 73 111 1.0 6.0 0.00 0.00 0.00 60 1017.8
20260505100203 73 111 1.0 6.0 0.00 0.00 0.00 60 1017.8
20260505100003 73 111 1.0 6.0 0.00 0.00 0.00 60 1017.8
20260505095903 73 111 1.0 6.0 0.00 0.00 0.00 60 1017.8
20260505095803 73 108 1.0 6.0 0.00 0.00 0.00 60 1017.8
20260505095703 73 107 1.0 6.0 0.00 0.00 0.00 60 1017.8
20260505095603 73 106 1.0 6.0 0.00 0.00 0.00 60 1017.9
20260505095503 73 106 1.0 6.0 0.00 0.00 0.00 60 1017.9
20260505095403 73 107 1.0 5.0 0.00 0.00 0.00 60 1017.8
20260505095304 73 106 1.0 5.0 0.00 0.00 0.00 60 1017.9
20260505095203 73 106 1.0 5.0 0.00 0.00 0.00 60 1017.9
20260505095103 73 108 1.0 5.0 0.00 0.00 0.00 60 1017.9
20260505095003 73 108 1.0 5.0 0.00 0.00 0.00 60 1017.9
20260505094903 73 110 1.0 5.0 0.00 0.00 0.00 60 1018.0
20260505094803 73 112 1.0 5.0 0.00 0.00 0.00 60 1017.9
20260505094703 73 114 1.0 5.0 0.00 0.00 0.00 60 1017.9
20260505094603 73 116 1.0 5.0 0.00 0.00 0.00 60 1017.9
20260505094503 73 115 1.0 5.0 0.00 0.00 0.00 60 1017.9
20260505094403 73 114 1.0 5.0 0.00 0.00 0.00 60 1017.9
20260505094303 73 116 1.0 5.0 0.00 0.00 0.00 60 1017.9
20260505094203 73 115 1.0 5.0 0.00 0.00 0.00 60 1017.9
20260505094103 73 112 1.0 4.0 0.00 0.00 0.00 60 1017.9
20260505094003 73 113 1.0 4.0 0.00 0.00 0.00 60 1017.9
20260505093903 74 109 1.0 4.0 0.00 0.00 0.00 60 1017.9
20260505093803 73 105 1.0 4.0 0.00 0.00 0.00 60 1017.9
20260505093703 73 103 0.0 3.0 0.00 0.00 0.00 60 1017.9
20260505093603 74 103 0.0 3.0 0.00 0.00 0.00 60 1017.9
20260505093503 74 104 0.0 3.0 0.00 0.00 0.00 60 1017.9
20260505093403 74 104 0.0 3.0 0.00 0.00 0.00 60 1018.0
20260505093303 74 105 0.0 3.0 0.00 0.00 0.00 60 1017.9
20260505093203 74 108 0.0 3.0 0.00 0.00 0.00 60 1017.9
20260505093103 73 112 0.0 3.0 0.00 0.00 0.00 60 1017.9
20260505093003 73 111 0.0 4.0 0.00 0.00 0.00 61 1017.9
20260505092903 73 109 0.0 4.0 0.00 0.00 0.00 61 1018.0
20260505092803 73 106 1.0 4.0 0.00 0.00 0.00 61 1017.9
20260505092703 73 106 1.0 4.0 0.00 0.00 0.00 60 1017.9
20260505092603 73 106 1.0 4.0 0.00 0.00 0.00 61 1017.9
20260505092503 73 106 1.0 4.0 0.00 0.00 0.00 61 1017.9
20260505092403 73 106 1.0 4.0 0.00 0.00 0.00 61 1017.9
20260505092305 73 106 1.0 4.0 0.00 0.00 0.00 61 1017.9
20260505092203 73 106 1.0 4.0 0.00 0.00 0.00 61 1017.9
20260505092103 73 106 1.0 4.0 0.00 0.00 0.00 61 1017.9
20260505092003 73 106 1.0 4.0 0.00 0.00 0.00 61 1017.9
20260505091903 73 105 1.0 4.0 0.00 0.00 0.00 61 1017.9
20260505091803 73 107 0.0 4.0 0.00 0.00 0.00 61 1017.9
20260505091703 73 105 0.0 3.0 0.00 0.00 0.00 61 1017.9
20260505091603 73 109 0.0 2.0 0.00 0.00 0.00 61 1018.0
20260505091503 73 107 0.0 2.0 0.00 0.00 0.00 61 1017.9
20260505091404 73 108 0.0 3.0 0.00 0.00 0.00 61 1017.9
20260505091304 73 101 0.0 3.0 0.00 0.00 0.00 61 1018.1
20260505091204 73 98 0.0 3.0 0.00 0.00 0.00 61 1018.1
20260505091104 73 97 0.0 3.0 0.00 0.00 0.00 61 1018.1
20260505091004 73 96 0.0 3.0 0.00 0.00 0.00 61 1018.1
20260505090904 73 97 0.0 3.0 0.00 0.00 0.00 61 1018.1
20260505090804 73 95 0.0 3.0 0.00 0.00 0.00 61 1018.2
20260505090704 73 95 0.0 3.0 0.00 0.00 0.00 61 1018.1
20260505090604 73 96 0.0 3.0 0.00 0.00 0.00 61 1018.1
20260505090504 73 95 0.0 3.0 0.00 0.00 0.00 61 1018.1
20260505090404 73 83 0.0 2.0 0.00 0.00 0.00 61 1018.2
20260505090304 73 89 0.0 2.0 0.00 0.00 0.00 61 1018.1
20260505090204 73 89 0.0 2.0 0.00 0.00 0.00 61 1018.0
20260505090104 73 89 0.0 2.0 0.00 0.00 0.00 61 1018.0
20260505090004 73 89 0.0 2.0 0.00 0.00 0.00 62 1018.0
20260505085904 73 92 0.0 2.0 0.00 0.00 0.00 62 1018.0
20260505085804 73 103 0.0 4.0 0.00 0.00 0.00 62 1018.1
20260505085704 73 105 0.0 4.0 0.00 0.00 0.00 62 1018.0
20260505085604 73 106 0.0 4.0 0.00 0.00 0.00 62 1018.0
20260505085504 73 106 0.0 4.0 0.00 0.00 0.00 62 1018.1
20260505085404 73 106 0.0 4.0 0.00 0.00 0.00 62 1018.0
20260505085305 73 107 0.0 4.0 0.00 0.00 0.00 62 1018.0
20260505085204 73 108 0.0 4.0 0.00 0.00 0.00 62 1018.0
20260505085104 73 113 1.0 4.0 0.00 0.00 0.00 62 1018.0
20260505085004 73 112 1.0 4.0 0.00 0.00 0.00 62 1018.1
20260505084904 73 112 1.0 4.0 0.00 0.00 0.00 62 1018.2
20260505084804 73 111 1.0 4.0 0.00 0.00 0.00 62 1018.0
20260505084704 73 105 1.0 4.0 0.00 0.00 0.00 63 1018.1
20260505084604 73 105 1.0 4.0 0.00 0.00 0.00 63 1018.0
20260505084504 73 104 1.0 4.0 0.00 0.00 0.00 62 1018.1
20260505084404 72 104 1.0 6.0 0.00 0.00 0.00 63 1018.1
20260505084304 72 104 1.0 6.0 0.00 0.00 0.00 62 1018.1
20260505084204 72 104 1.0 6.0 0.00 0.00 0.00 63 1018.0
20260505084104 72 99 1.0 6.0 0.00 0.00 0.00 62 1018.0
20260505084004 72 99 1.0 6.0 0.00 0.00 0.00 62 1018.1
20260505083904 72 101 1.0 6.0 0.00 0.00 0.00 62 1018.0
20260505083804 72 101 1.0 6.0 0.00 0.00 0.00 62 1018.1
20260505083704 72 103 1.0 6.0 0.00 0.00 0.00 62 1018.1
20260505083604 73 103 1.0 6.0 0.00 0.00 0.00 63 1018.1
20260505083504 73 103 1.0 6.0 0.00 0.00 0.00 63 1018.0
20260505083404 73 103 1.0 4.0 0.00 0.00 0.00 63 1018.0
20260505083304 73 103 1.0 4.0 0.00 0.00 0.00 63 1018.1
20260505083204 73 103 1.0 4.0 0.00 0.00 0.00 63 1018.2
20260505083104 73 104 1.0 4.0 0.00 0.00 0.00 63 1018.1
20260505083004 73 105 1.0 4.0 0.00 0.00 0.00 63 1018.0
20260505082904 73 102 1.0 4.0 0.00 0.00 0.00 63 1017.9
20260505082803 73 105 1.0 4.0 0.00 0.00 0.00 63 1017.9
20260505082703 73 105 1.0 4.0 0.00 0.00 0.00 63 1018.0
20260505082604 73 107 1.0 4.0 0.00 0.00 0.00 63 1018.1
20260505082503 73 108 1.0 4.0 0.00 0.00 0.00 63 1018.0
20260505082403 73 107 1.0 4.0 0.00 0.00 0.00 63 1018.0
20260505082304 73 107 1.0 4.0 0.00 0.00 0.00 63 1017.9
20260505082203 73 109 1.0 5.0 0.00 0.00 0.00 63 1018.0
20260505082103 73 109 1.0 5.0 0.00 0.00 0.00 63 1018.0
20260505082003 73 109 1.0 5.0 0.00 0.00 0.00 63 1018.0
20260505081903 73 110 1.0 5.0 0.00 0.00 0.00 63 1018.0
20260505081803 73 106 1.0 5.0 0.00 0.00 0.00 63 1018.1
20260505081703 73 105 1.0 5.0 0.00 0.00 0.00 64 1018.1
20260505081603 73 102 1.0 5.0 0.00 0.00 0.00 63 1018.1
20260505081503 73 105 1.0 5.0 0.00 0.00 0.00 63 1018.1
20260505081403 73 106 1.0 5.0 0.00 0.00 0.00 63 1018.1
20260505081303 73 106 1.0 5.0 0.00 0.00 0.00 63 1018.1
20260505081203 73 105 1.0 5.0 0.00 0.00 0.00 63 1018.1
20260505081103 73 105 1.0 5.0 0.00 0.00 0.00 64 1018.0
20260505081003 73 105 1.0 5.0 0.00 0.00 0.00 64 1018.1
20260505080903 73 106 1.0 5.0 0.00 0.00 0.00 64 1018.1
20260505080803 73 87 1.0 14.0 0.00 0.00 0.00 64 1018.1
20260505080703 73 90 1.0 14.0 0.00 0.00 0.00 64 1018.1
20260505080603 73 96 1.0 14.0 0.00 0.00 0.00 64 1018.1
20260505080503 73 93 1.0 14.0 0.00 0.00 0.00 64 1018.1
20260505080403 72 81 1.0 14.0 0.00 0.00 0.00 65 1018.1
20260505080303 72 83 1.0 14.0 0.00 0.00 0.00 65 1018.1
20260505080203 72 91 1.0 14.0 0.00 0.00 0.00 65 1018.0
20260505080103 72 91 1.0 14.0 0.00 0.00 0.00 65 1018.1
20260505080003 72 83 1.0 14.0 0.00 0.00 0.00 65 1018.1
20260505075903 72 92 2.0 14.0 0.00 0.00 0.00 65 1018.0
20260505075803 72 102 2.0 14.0 0.00 0.00 0.00 65 1018.1
20260505075703 72 95 2.0 14.0 0.00 0.00 0.00 65 1018.0
20260505075603 72 96 2.0 14.0 0.00 0.00 0.00 64 1018.0
20260505075503 72 99 2.0 14.0 0.00 0.00 0.00 64 1018.0
20260505075403 72 100 2.0 14.0 0.00 0.00 0.00 64 1018.0
20260505075304 72 100 2.0 14.0 0.00 0.00 0.00 64 1018.0
20260505075203 73 100 2.0 14.0 0.00 0.00 0.00 64 1018.0
20260505075103 73 101 2.0 14.0 0.00 0.00 0.00 64 1018.0
20260505075003 73 109 1.0 14.0 0.00 0.00 0.00 64 1017.9
20260505074903 73 105 1.0 14.0 0.00 0.00 0.00 64 1018.0
20260505074803 73 103 1.0 14.0 0.00 0.00 0.00 64 1017.9
20260505074703 73 113 1.0 6.0 0.00 0.00 0.00 64 1017.9
20260505074603 73 113 1.0 4.0 0.00 0.00 0.00 64 1017.9
20260505074503 73 111 0.0 4.0 0.00 0.00 0.00 64 1017.9
20260505074403 73 106 0.0 4.0 0.00 0.00 0.00 64 1018.0
20260505074303 73 104 0.0 4.0 0.00 0.00 0.00 64 1018.0
20260505074203 73 105 1.0 4.0 0.00 0.00 0.00 64 1017.9
20260505074103 73 104 1.0 4.0 0.00 0.00 0.00 64 1017.8
20260505074003 73 104 1.0 4.0 0.00 0.00 0.00 64 1017.9
20260505073903 72 105 1.0 5.0 0.00 0.00 0.00 64 1017.9
20260505073803 72 107 1.0 5.0 0.00 0.00 0.00 64 1017.9
20260505073703 72 108 1.0 5.0 0.00 0.00 0.00 64 1017.8
20260505073603 72 108 1.0 5.0 0.00 0.00 0.00 64 1017.8
20260505073503 72 108 1.0 5.0 0.00 0.00 0.00 64 1017.8
20260505073403 72 110 1.0 5.0 0.00 0.00 0.00 63 1017.9
20260505073303 72 109 1.0 5.0 0.00 0.00 0.00 63 1018.0
20260505073203 72 109 1.0 5.0 0.00 0.00 0.00 63 1018.0
20260505073103 72 96 1.0 14.0 0.00 0.00 0.00 63 1018.0
20260505073003 72 92 1.0 14.0 0.00 0.00 0.00 63 1018.0
20260505072903 72 89 1.0 14.0 0.00 0.00 0.00 63 1017.8
20260505072803 72 89 1.0 14.0 0.00 0.00 0.00 63 1017.9
20260505072703 72 93 1.0 14.0 0.00 0.00 0.00 63 1018.0
20260505072603 72 94 1.0 14.0 0.00 0.00 0.00 63 1018.1
20260505072503 72 88 1.0 14.0 0.00 0.00 0.00 63 1018.1
20260505072403 72 83 1.0 14.0 0.00 0.00 0.00 63 1018.0
20260505072305 72 81 1.0 14.0 0.00 0.00 0.00 63 1018.0
20260505072203 72 90 1.0 14.0 0.00 0.00 0.00 63 1018.0
20260505072103 72 107 1.0 3.0 0.00 0.00 0.00 63 1018.0
20260505072003 72 108 1.0 3.0 0.00 0.00 0.00 64 1018.0
20260505071903 72 106 1.0 5.0 0.00 0.00 0.00 64 1017.9
20260505071803 72 106 1.0 5.0 0.00 0.00 0.00 64 1018.0
20260505071703 72 89 1.0 14.0 0.00 0.00 0.00 64 1018.0
20260505071603 72 63 1.0 14.0 0.00 0.00 0.00 64 1018.0
20260505071503 72 63 1.0 14.0 0.00 0.00 0.00 63 1018.0
20260505071403 72 62 1.0 14.0 0.00 0.00 0.00 63 1017.9
20260505071303 72 60 1.0 14.0 0.00 0.00 0.00 63 1018.0
20260505071203 72 58 1.0 14.0 0.00 0.00 0.00 63 1018.0
20260505071103 72 67 1.0 14.0 0.00 0.00 0.00 63 1018.1
20260505071003 72 74 1.0 14.0 0.00 0.00 0.00 63 1018.1
20260505070903 72 65 1.0 14.0 0.00 0.00 0.00 63 1018.1
20260505070803 72 61 1.0 14.0 0.00 0.00 0.00 63 1018.1
20260505070703 72 88 1.0 14.0 0.00 0.00 0.00 63 1018.0
20260505070603 72 111 0.0 4.0 0.00 0.00 0.00 64 1018.1
20260505070503 72 111 0.0 4.0 0.00 0.00 0.00 63 1018.0
20260505070403 72 110 1.0 4.0 0.00 0.00 0.00 63 1018.0
20260505070303 72 110 1.0 4.0 0.00 0.00 0.00 63 1018.0
20260505070203 72 110 1.0 4.0 0.00 0.00 0.00 63 1017.9
20260505070003 72 108 1.0 4.0 0.00 0.00 0.00 63 1017.9
20260505065903 72 109 1.0 4.0 0.00 0.00 0.00 63 1017.9
20260505065803 72 109 1.0 5.0 0.00 0.00 0.00 63 1017.9
20260505065703 72 109 1.0 5.0 0.00 0.00 0.00 62 1017.9
20260505065603 72 110 1.0 5.0 0.00 0.00 0.00 62 1018.0
20260505065503 72 111 1.0 5.0 0.00 0.00 0.00 63 1017.8
20260505065403 73 111 1.0 5.0 0.00 0.00 0.00 62 1017.9
20260505065304 73 105 2.0 14.0 0.00 0.00 0.00 62 1017.9
20260505065203 73 105 2.0 14.0 0.00 0.00 0.00 62 1018.0
20260505065103 73 105 2.0 14.0 0.00 0.00 0.00 62 1018.1
20260505065004 73 105 2.0 14.0 0.00 0.00 0.00 61 1018.1
20260505064904 73 104 2.0 14.0 0.00 0.00 0.00 61 1018.0
20260505064804 74 102 2.0 14.0 0.00 0.00 0.00 61 1018.0
20260505064704 74 100 1.0 14.0 0.00 0.00 0.00 61 1018.0
20260505064604 74 98 1.0 14.0 0.00 0.00 0.00 61 1018.0
20260505064504 74 96 1.0 14.0 0.00 0.00 0.00 61 1018.0
20260505064404 74 95 1.0 14.0 0.00 0.00 0.00 61 1018.0
20260505064304 74 104 1.0 5.0 0.00 0.00 0.00 61 1018.0
20260505064204 74 104 1.0 5.0 0.00 0.00 0.00 61 1018.0
20260505064104 74 105 1.0 5.0 0.00 0.00 0.00 61 1018.0
20260505064004 74 105 1.0 5.0 0.00 0.00 0.00 61 1018.0
20260505063904 74 106 1.0 5.0 0.00 0.00 0.00 61 1018.0
20260505063804 74 107 1.0 5.0 0.00 0.00 0.00 61 1018.1
20260505063704 74 109 1.0 5.0 0.00 0.00 0.00 61 1018.1
20260505063604 74 109 1.0 5.0 0.00 0.00 0.00 61 1018.1
20260505063504 74 110 1.0 5.0 0.00 0.00 0.00 61 1017.9
20260505063404 74 111 1.0 4.0 0.00 0.00 0.00 61 1017.8
20260505063304 74 111 0.0 4.0 0.00 0.00 0.00 61 1017.9
20260505063204 74 111 0.0 4.0 0.00 0.00 0.00 61 1017.9
20260505063104 74 111 0.0 3.0 0.00 0.00 0.00 61 1017.9
20260505063004 74 110 0.0 3.0 0.00 0.00 0.00 60 1017.9
20260505062904 74 110 0.0 3.0 0.00 0.00 0.00 60 1018.0
20260505062804 74 110 0.0 3.0 0.00 0.00 0.00 60 1018.0
20260505062704 74 105 0.0 1.0 0.00 0.00 0.00 60 1018.0
20260505062604 74 106 0.0 3.0 0.00 0.00 0.00 60 1018.0
20260505062504 74 106 0.0 3.0 0.00 0.00 0.00 59 1018.0
20260505062404 74 100 0.0 3.0 0.00 0.00 0.00 59 1017.9
20260505062304 74 102 0.0 3.0 0.00 0.00 0.00 59 1018.0
20260505062204 74 101 0.0 3.0 0.00 0.00 0.00 59 1018.0
20260505062104 74 105 1.0 4.0 0.00 0.00 0.00 58 1018.0
20260505062004 74 105 1.0 4.0 0.00 0.00 0.00 58 1018.1
20260505061904 74 105 1.0 4.0 0.00 0.00 0.00 58 1018.1
20260505061804 74 105 1.0 4.0 0.00 0.00 0.00 58 1018.1
20260505061704 74 106 1.0 4.0 0.00 0.00 0.00 58 1018.0
20260505061604 74 106 0.0 4.0 0.00 0.00 0.00 58 1018.0
20260505061504 74 107 0.0 4.0 0.00 0.00 0.00 58 1018.1
20260505061404 74 115 0.0 4.0 0.00 0.00 0.00 59 1018.0
20260505061304 74 116 0.0 4.0 0.00 0.00 0.00 59 1018.1
20260505061204 74 116 0.0 4.0 0.00 0.00 0.00 60 1018.2
20260505061103 74 168 0.0 1.0 0.00 0.00 0.00 60 1018.2
20260505061004 74 168 0.0 1.0 0.00 0.00 0.00 60 1018.2
20260505060903 74 168 0.0 1.0 0.00 0.00 0.00 60 1018.2
20260505060803 74 168 0.0 1.0 0.00 0.00 0.00 60 1018.1
20260505060703 73 112 0.0 1.0 0.00 0.00 0.00 60 1018.1
20260505060603 73 112 0.0 1.0 0.00 0.00 0.00 61 1018.2
20260505060503 73 112 0.0 1.0 0.00 0.00 0.00 61 1018.2
20260505060403 73 112 0.0 1.0 0.00 0.00 0.00 61 1018.2
20260505060303 73 112 0.0 1.0 0.00 0.00 0.00 62 1018.1
20260505060203 73 0 0.0 0.0 0.00 0.00 0.00 62 1017.9
20260505060103 72 0 0.0 0.0 0.00 0.00 0.00 62 1018.1
20260505060004 72 0 0.0 0.0 0.00 0.00 0.00 62 1018.0
20260505055903 72 0 0.0 0.0 0.00 0.00 0.00 62 1018.0
20260505055803 72 0 0.0 0.0 0.00 0.00 0.00 62 1018.1
20260505055703 72 0 0.0 0.0 0.00 0.00 0.00 62 1018.1
20260505055603 72 0 0.0 0.0 0.00 0.00 0.00 62 1018.1
20260505055504 72 0 0.0 0.0 0.00 0.00 0.00 62 1018.0
20260505055403 72 0 0.0 0.0 0.00 0.00 0.00 63 1018.0
20260505055304 71 0 0.0 0.0 0.00 0.00 0.00 63 1018.0
20260505055203 71 0 0.0 0.0 0.00 0.00 0.00 63 1018.0
20260505055103 71 0 0.0 0.0 0.00 0.00 0.00 63 1018.1
20260505055003 71 0 0.0 0.0 0.00 0.00 0.00 63 1018.1
20260505054903 71 0 0.0 0.0 0.00 0.00 0.00 64 1018.1
20260505054803 70 0 0.0 0.0 0.00 0.00 0.00 64 1018.0
20260505054703 70 0 0.0 0.0 0.00 0.00 0.00 64 1018.1
20260505054603 70 0 0.0 0.0 0.00 0.00 0.00 64 1018.0
20260505054503 70 0 0.0 0.0 0.00 0.00 0.00 64 1017.9
20260505054403 70 0 0.0 0.0 0.00 0.00 0.00 64 1017.9
20260505054303 69 0 0.0 0.0 0.00 0.00 0.00 64 1018.0
20260505054203 69 0 0.0 0.0 0.00 0.00 0.00 64 1017.9
20260505054103 69 0 0.0 0.0 0.00 0.00 0.00 64 1017.9
20260505054003 69 0 0.0 0.0 0.00 0.00 0.00 65 1017.9
20260505053903 69 0 0.0 0.0 0.00 0.00 0.00 64 1017.9
20260505053803 68 0 0.0 0.0 0.00 0.00 0.00 65 1018.0
20260505053703 68 0 0.0 0.0 0.00 0.00 0.00 65 1017.9
20260505053603 68 0 0.0 0.0 0.00 0.00 0.00 65 1017.9
20260505053503 67 0 0.0 0.0 0.00 0.00 0.00 65 1017.9
20260505053403 67 0 0.0 0.0 0.00 0.00 0.00 65 1017.8
20260505053303 67 0 0.0 0.0 0.00 0.00 0.00 65 1017.8
20260505053203 66 0 0.0 0.0 0.00 0.00 0.00 65 1017.8
20260505053103 66 0 0.0 0.0 0.00 0.00 0.00 65 1017.8
20260505053003 66 0 0.0 0.0 0.00 0.00 0.00 65 1017.9
20260505052903 65 0 0.0 0.0 0.00 0.00 0.00 65 1017.9
20260505052803 65 0 0.0 0.0 0.00 0.00 0.00 65 1017.8
20260505052703 65 0 0.0 0.0 0.00 0.00 0.00 64 1017.8
20260505052603 65 0 0.0 0.0 0.00 0.00 0.00 64 1017.8
20260505052503 65 0 0.0 0.0 0.00 0.00 0.00 63 1017.8
20260505052403 65 0 0.0 0.0 0.00 0.00 0.00 63 1017.8
20260505052304 64 0 0.0 0.0 0.00 0.00 0.00 63 1017.7
20260505052203 64 0 0.0 0.0 0.00 0.00 0.00 62 1017.8
20260505052103 64 0 0.0 0.0 0.00 0.00 0.00 62 1017.9
20260505052003 64 0 0.0 0.0 0.00 0.00 0.00 62 1017.9
20260505051903 64 0 0.0 0.0 0.00 0.00 0.00 62 1018.0
20260505051803 64 0 0.0 0.0 0.00 0.00 0.00 62 1017.9
20260505051703 64 0 0.0 0.0 0.00 0.00 0.00 62 1017.9
20260505051603 64 0 0.0 0.0 0.00 0.00 0.00 62 1017.8
20260505051503 64 0 0.0 0.0 0.00 0.00 0.00 62 1017.9
20260505051403 64 0 0.0 0.0 0.00 0.00 0.00 62 1017.9
20260505051303 64 0 0.0 0.0 0.00 0.00 0.00 62 1017.8
20260505051203 64 0 0.0 0.0 0.00 0.00 0.00 62 1017.9
20260505051103 63 0 0.0 0.0 0.00 0.00 0.00 61 1017.7
20260505051003 63 0 0.0 0.0 0.00 0.00 0.00 61 1017.8
20260505050903 63 0 0.0 0.0 0.00 0.00 0.00 62 1017.7
20260505050803 63 0 0.0 0.0 0.00 0.00 0.00 62 1017.7
20260505050703 63 0 0.0 0.0 0.00 0.00 0.00 62 1017.7
20260505050603 63 0 0.0 0.0 0.00 0.00 0.00 62 1017.7
20260505050503 63 0 0.0 0.0 0.00 0.00 0.00 62 1017.7
20260505050403 63 0 0.0 0.0 0.00 0.00 0.00 62 1017.7
20260505050303 63 0 0.0 0.0 0.00 0.00 0.00 62 1017.7
20260505050203 63 0 0.0 0.0 0.00 0.00 0.00 62 1017.6
20260505050103 63 0 0.0 0.0 0.00 0.00 0.00 62 1017.6
20260505041704 62 0 0.0 0.0 0.00 0.00 0.00 64 1017.2
20260505041604 62 0 0.0 0.0 0.00 0.00 0.00 64 1017.1
20260505041504 62 0 0.0 0.0 0.00 0.00 0.00 64 1017.2
20260505041404 61 0 0.0 0.0 0.00 0.00 0.00 64 1017.2
20260505041304 61 0 0.0 0.0 0.00 0.00 0.00 63 1017.2
20260505041204 61 0 0.0 0.0 0.00 0.00 0.00 63 1017.1
20260505041104 61 0 0.0 0.0 0.00 0.00 0.00 63 1017.2
20260505041004 61 0 0.0 0.0 0.00 0.00 0.00 63 1017.1
20260505040904 61 0 0.0 0.0 0.00 0.00 0.00 63 1017.2
20260505040804 61 0 0.0 0.0 0.00 0.00 0.00 63 1017.2
20260505040704 61 0 0.0 0.0 0.00 0.00 0.00 63 1017.2
20260505040604 61 0 0.0 0.0 0.00 0.00 0.00 63 1017.2
20260505040504 61 0 0.0 0.0 0.00 0.00 0.00 63 1017.1
20260505040404 61 0 0.0 0.0 0.00 0.00 0.00 63 1017.2
20260505040304 61 0 0.0 0.0 0.00 0.00 0.00 63 1017.2
20260505040204 61 0 0.0 0.0 0.00 0.00 0.00 63 1017.2
20260505040104 61 0 0.0 0.0 0.00 0.00 0.00 63 1017.2
20260505040004 61 0 0.0 0.0 0.00 0.00 0.00 63 1017.2
20260505035904 61 0 0.0 0.0 0.00 0.00 0.00 63 1017.2
20260505035804 61 0 0.0 0.0 0.00 0.00 0.00 63 1017.2
20260505035704 61 0 0.0 0.0 0.00 0.00 0.00 63 1017.2
20260505035604 61 0 0.0 0.0 0.00 0.00 0.00 63 1017.2
20260505035504 61 0 0.0 0.0 0.00 0.00 0.00 63 1017.3
20260505035404 61 0 0.0 0.0 0.00 0.00 0.00 63 1017.2
20260505035304 61 0 0.0 0.0 0.00 0.00 0.00 63 1017.2
20260505035204 61 0 0.0 0.0 0.00 0.00 0.00 64 1017.2
20260505035104 61 0 0.0 0.0 0.00 0.00 0.00 64 1017.2
20260505035004 61 0 0.0 0.0 0.00 0.00 0.00 64 1017.2
20260505034903 61 0 0.0 0.0 0.00 0.00 0.00 64 1017.2
20260505034803 61 0 0.0 0.0 0.00 0.00 0.00 64 1017.2
20260505034703 61 0 0.0 0.0 0.00 0.00 0.00 64 1017.2
20260505034603 61 0 0.0 0.0 0.00 0.00 0.00 64 1017.1
20260505034504 61 0 0.0 0.0 0.00 0.00 0.00 64 1017.1
20260505034403 61 0 0.0 0.0 0.00 0.00 0.00 64 1017.1
20260505034303 61 0 0.0 0.0 0.00 0.00 0.00 64 1017.2
20260505034203 61 0 0.0 0.0 0.00 0.00 0.00 64 1017.2
20260505034103 61 0 0.0 0.0 0.00 0.00 0.00 64 1017.1
20260505034003 61 0 0.0 0.0 0.00 0.00 0.00 64 1017.1
20260505033903 61 0 0.0 0.0 0.00 0.00 0.00 64 1017.2
20260505033803 61 0 0.0 0.0 0.00 0.00 0.00 64 1017.1
20260505033703 61 0 0.0 0.0 0.00 0.00 0.00 64 1017.2
20260505033603 61 0 0.0 0.0 0.00 0.00 0.00 64 1017.2
20260505033503 61 0 0.0 0.0 0.00 0.00 0.00 64 1017.1
20260505033403 61 0 0.0 0.0 0.00 0.00 0.00 64 1017.1
20260505033303 61 0 0.0 0.0 0.00 0.00 0.00 64 1017.2
20260505033203 19 0 0.0 0.0 0.00 0.00 0.00 64 1017.1
20260505033103 61 0 0.0 0.0 0.00 0.00 0.00 64 1017.1
20260505033003 61 0 0.0 0.0 0.00 0.00 0.00 65 1017.0
20260505032903 61 0 0.0 0.0 0.00 0.00 0.00 65 1017.1
20260505032803 61 0 0.0 0.0 0.00 0.00 0.00 65 1017.2
20260505032703 61 0 0.0 0.0 0.00 0.00 0.00 65 1017.0
20260505032603 61 0 0.0 0.0 0.00 0.00 0.00 65 1017.1
20260505032503 61 0 0.0 0.0 0.00 0.00 0.00 65 1017.2
20260505032403 61 0 0.0 0.0 0.00 0.00 0.00 65 1017.0
20260505032304 61 0 0.0 0.0 0.00 0.00 0.00 65 1017.0
20260505032203 61 0 0.0 0.0 0.00 0.00 0.00 65 1017.1
20260505032103 61 0 0.0 0.0 0.00 0.00 0.00 65 1017.1
20260505032003 61 0 0.0 0.0 0.00 0.00 0.00 65 1017.0
20260505031903 61 0 0.0 0.0 0.00 0.00 0.00 64 1017.1
20260505031803 61 0 0.0 0.0 0.00 0.00 0.00 64 1017.1
20260505031703 61 0 0.0 0.0 0.00 0.00 0.00 64 1017.1
20260505031603 61 0 0.0 0.0 0.00 0.00 0.00 64 1017.1
20260505031503 61 0 0.0 0.0 0.00 0.00 0.00 64 1017.0
20260505031403 61 0 0.0 0.0 0.00 0.00 0.00 64 1017.0
20260505031303 61 0 0.0 0.0 0.00 0.00 0.00 64 1017.1
20260505031203 61 0 0.0 0.0 0.00 0.00 0.00 64 1017.1
20260505031103 61 0 0.0 0.0 0.00 0.00 0.00 64 1017.1
20260505031003 61 0 0.0 0.0 0.00 0.00 0.00 64 1017.1
20260505030903 61 0 0.0 0.0 0.00 0.00 0.00 64 1017.1
20260505030803 61 0 0.0 0.0 0.00 0.00 0.00 64 1017.1
20260505030703 61 0 0.0 0.0 0.00 0.00 0.00 64 1017.2
20260505030603 61 0 0.0 0.0 0.00 0.00 0.00 64 1017.2
20260505030503 61 0 0.0 0.0 0.00 0.00 0.00 64 1017.2
20260505030403 61 0 0.0 0.0 0.00 0.00 0.00 64 1017.2
20260505030303 61 0 0.0 0.0 0.00 0.00 0.00 64 1017.2
20260505030203 61 0 0.0 0.0 0.00 0.00 0.00 64 1017.2
20260505030103 61 0 0.0 0.0 0.00 0.00 0.00 64 1017.2
20260505030003 61 0 0.0 0.0 0.00 0.00 0.00 64 1017.2
20260505025903 61 0 0.0 0.0 0.00 0.00 0.00 64 1017.2
20260505025803 61 0 0.0 0.0 0.00 0.00 0.00 64 1017.3
20260505025703 61 0 0.0 0.0 0.00 0.00 0.00 64 1017.2
20260505025603 61 0 0.0 0.0 0.00 0.00 0.00 64 1017.2
20260505025503 61 0 0.0 0.0 0.00 0.00 0.00 64 1017.2
20260505025403 61 0 0.0 0.0 0.00 0.00 0.00 64 1017.2
20260505025304 61 0 0.0 0.0 0.00 0.00 0.00 64 1017.2
20260505024803 61 0 0.0 0.0 0.00 0.00 0.00 63 1017.2
20260505024703 61 0 0.0 0.0 0.00 0.00 0.00 63 1017.2
20260505024603 61 0 0.0 0.0 0.00 0.00 0.00 63 1017.2
20260505024503 61 0 0.0 0.0 0.00 0.00 0.00 63 1017.2
20260505024403 61 0 0.0 0.0 0.00 0.00 0.00 63 1017.2
20260505024303 61 0 0.0 0.0 0.00 0.00 0.00 63 1017.2
20260505024203 61 0 0.0 0.0 0.00 0.00 0.00 63 1017.3
20260505024103 61 0 0.0 0.0 0.00 0.00 0.00 63 1017.3
20260505024003 61 0 0.0 0.0 0.00 0.00 0.00 63 1017.3
20260505023903 61 0 0.0 0.0 0.00 0.00 0.00 63 1017.2
20260505023803 61 0 0.0 0.0 0.00 0.00 0.00 63 1017.3
20260505023703 61 0 0.0 0.0 0.00 0.00 0.00 63 1017.3
20260505023603 61 0 0.0 0.0 0.00 0.00 0.00 63 1017.3
20260505023503 61 0 0.0 0.0 0.00 0.00 0.00 63 1017.2
20260505023403 61 0 0.0 0.0 0.00 0.00 0.00 63 1017.4
20260505023303 61 0 0.0 0.0 0.00 0.00 0.00 63 1017.3
20260505023203 61 0 0.0 0.0 0.00 0.00 0.00 63 1017.3
20260505023103 61 0 0.0 0.0 0.00 0.00 0.00 63 1017.3
20260505023003 61 0 0.0 0.0 0.00 0.00 0.00 62 1017.4
20260505022903 61 0 0.0 0.0 0.00 0.00 0.00 62 1017.4
20260505022803 61 0 0.0 0.0 0.00 0.00 0.00 62 1017.3
20260505022703 61 0 0.0 0.0 0.00 0.00 0.00 62 1017.3
20260505022603 61 0 0.0 0.0 0.00 0.00 0.00 62 1017.4
20260505022503 61 0 0.0 0.0 0.00 0.00 0.00 62 1017.5
20260505022304 61 0 0.0 0.0 0.00 0.00 0.00 62 1017.3
20260505022204 61 0 0.0 0.0 0.00 0.00 0.00 62 1017.3
20260505022104 61 0 0.0 0.0 0.00 0.00 0.00 62 1017.4
20260505022004 61 0 0.0 0.0 0.00 0.00 0.00 62 1017.3
20260505021904 61 0 0.0 0.0 0.00 0.00 0.00 62 1017.4
20260505021804 61 0 0.0 0.0 0.00 0.00 0.00 62 1017.4
20260505021704 61 0 0.0 0.0 0.00 0.00 0.00 62 1017.4
20260505021604 61 0 0.0 0.0 0.00 0.00 0.00 62 1017.4
20260505021504 61 0 0.0 0.0 0.00 0.00 0.00 62 1017.5
20260505021404 61 0 0.0 0.0 0.00 0.00 0.00 62 1017.4
20260505021304 61 0 0.0 0.0 0.00 0.00 0.00 61 1017.4
20260505021204 61 0 0.0 0.0 0.00 0.00 0.00 62 1017.5
20260505021104 61 0 0.0 0.0 0.00 0.00 0.00 61 1017.5
20260505021004 61 0 0.0 0.0 0.00 0.00 0.00 61 1017.4
20260505020904 61 0 0.0 0.0 0.00 0.00 0.00 61 1017.4
20260505020804 61 0 0.0 0.0 0.00 0.00 0.00 61 1017.5
20260505020704 61 0 0.0 0.0 0.00 0.00 0.00 61 1017.5
20260505020604 61 0 0.0 0.0 0.00 0.00 0.00 61 1017.5
20260505020504 61 0 0.0 0.0 0.00 0.00 0.00 61 1017.4
20260505020404 61 0 0.0 0.0 0.00 0.00 0.00 61 1017.3
20260505020304 61 0 0.0 0.0 0.00 0.00 0.00 61 1017.4
20260505020204 60 0 0.0 0.0 0.00 0.00 0.00 61 1017.4
20260505020104 60 0 0.0 0.0 0.00 0.00 0.00 61 1017.3
20260505020004 60 0 0.0 0.0 0.00 0.00 0.00 61 1017.3
20260505015904 60 0 0.0 0.0 0.00 0.00 0.00 61 1017.3
20260505015804 60 0 0.0 0.0 0.00 0.00 0.00 61 1017.4
20260505015704 60 0 0.0 0.0 0.00 0.00 0.00 61 1017.4
20260505015604 60 0 0.0 0.0 0.00 0.00 0.00 61 1017.5
20260505015504 60 0 0.0 0.0 0.00 0.00 0.00 61 1017.5
20260505015404 60 0 0.0 0.0 0.00 0.00 0.00 61 1017.3
20260505015304 60 0 0.0 0.0 0.00 0.00 0.00 61 1017.4
20260505015204 60 0 0.0 0.0 0.00 0.00 0.00 61 1017.5
20260505015104 60 0 0.0 0.0 0.00 0.00 0.00 61 1017.5
20260505015004 60 0 0.0 0.0 0.00 0.00 0.00 61 1017.7
20260505014904 60 0 0.0 0.0 0.00 0.00 0.00 61 1017.5
20260505014804 60 0 0.0 0.0 0.00 0.00 0.00 61 1017.5
20260505014704 60 0 0.0 0.0 0.00 0.00 0.00 61 1017.5
20260505014604 60 0 0.0 0.0 0.00 0.00 0.00 61 1017.6
20260505014504 60 0 0.0 0.0 0.00 0.00 0.00 61 1017.6
20260505014404 60 0 0.0 0.0 0.00 0.00 0.00 61 1017.6
20260505014304 60 0 0.0 0.0 0.00 0.00 0.00 61 1017.6
20260505014204 60 0 0.0 0.0 0.00 0.00 0.00 61 1017.6
20260505014104 60 0 0.0 0.0 0.00 0.00 0.00 61 1017.7
20260505014004 60 0 0.0 0.0 0.00 0.00 0.00 62 1017.7
20260505013904 60 0 0.0 0.0 0.00 0.00 0.00 62 1017.7
20260505013804 60 0 0.0 0.0 0.00 0.00 0.00 62 1017.6
20260505013704 60 0 0.0 0.0 0.00 0.00 0.00 62 1017.8
20260505013603 60 0 0.0 0.0 0.00 0.00 0.00 62 1017.7
20260505013504 60 0 0.0 0.0 0.00 0.00 0.00 62 1017.8
20260505013403 60 0 0.0 0.0 0.00 0.00 0.00 62 1017.8
20260505013304 60 0 0.0 0.0 0.00 0.00 0.00 62 1017.9
20260505013204 60 0 0.0 0.0 0.00 0.00 0.00 62 1017.7
20260505013104 60 0 0.0 0.0 0.00 0.00 0.00 62 1017.7
20260505013003 60 0 0.0 0.0 0.00 0.00 0.00 62 1017.7
20260505012904 60 0 0.0 0.0 0.00 0.00 0.00 62 1017.7
20260505012803 60 0 0.0 0.0 0.00 0.00 0.00 62 1017.8
20260505012704 60 0 0.0 0.0 0.00 0.00 0.00 62 1017.7
20260505012603 60 0 0.0 0.0 0.00 0.00 0.00 62 1017.7
20260505012503 60 0 0.0 0.0 0.00 0.00 0.00 62 1017.6
20260505012403 60 0 0.0 0.0 0.00 0.00 0.00 62 1017.7
20260505012304 60 0 0.0 0.0 0.00 0.00 0.00 62 1017.7
20260505012203 60 0 0.0 0.0 0.00 0.00 0.00 62 1017.7
20260505012103 60 0 0.0 0.0 0.00 0.00 0.00 62 1017.7
20260505012003 60 0 0.0 0.0 0.00 0.00 0.00 62 1017.7
20260505011903 60 0 0.0 0.0 0.00 0.00 0.00 62 1017.7
20260505011803 60 0 0.0 0.0 0.00 0.00 0.00 62 1017.7
20260505011703 60 0 0.0 0.0 0.00 0.00 0.00 62 1017.8
20260505011603 60 0 0.0 0.0 0.00 0.00 0.00 63 1017.8
20260505011503 60 0 0.0 0.0 0.00 0.00 0.00 63 1017.7
20260505011403 60 0 0.0 0.0 0.00 0.00 0.00 63 1017.7
20260505011303 60 0 0.0 0.0 0.00 0.00 0.00 63 1017.7
20260505011203 60 0 0.0 0.0 0.00 0.00 0.00 63 1017.7
20260505011103 60 0 0.0 0.0 0.00 0.00 0.00 63 1017.7
20260505011003 60 0 0.0 0.0 0.00 0.00 0.00 63 1017.7
20260505010903 60 0 0.0 0.0 0.00 0.00 0.00 63 1017.7
20260505010803 60 0 0.0 0.0 0.00 0.00 0.00 64 1017.7
20260505010703 60 0 0.0 0.0 0.00 0.00 0.00 64 1017.7
20260505010603 60 0 0.0 0.0 0.00 0.00 0.00 64 1017.7
20260505010503 60 0 0.0 0.0 0.00 0.00 0.00 65 1017.6
20260505010403 60 0 0.0 0.0 0.00 0.00 0.00 65 1017.7
20260505010303 60 0 0.0 0.0 0.00 0.00 0.00 65 1017.7
20260505010203 60 0 0.0 0.0 0.00 0.00 0.00 65 1017.8
20260505010103 60 0 0.0 0.0 0.00 0.00 0.00 65 1017.8
20260505010004 60 0 0.0 0.0 0.00 0.00 0.00 65 1017.8
20260505005903 60 0 0.0 0.0 0.00 0.00 0.00 65 1017.8
20260505005803 60 0 0.0 0.0 0.00 0.00 0.00 65 1017.7
20260505005704 60 0 0.0 0.0 0.00 0.00 0.00 65 1017.7
20260505005603 60 0 0.0 0.0 0.00 0.00 0.00 65 1017.8
20260505005503 60 0 0.0 0.0 0.00 0.00 0.00 65 1017.8
20260505005403 60 0 0.0 0.0 0.00 0.00 0.00 65 1017.6
20260505005304 60 0 0.0 0.0 0.00 0.00 0.00 65 1017.7
20260505005203 60 0 0.0 0.0 0.00 0.00 0.00 65 1017.8
20260505005103 60 0 0.0 0.0 0.00 0.00 0.00 65 1017.8
20260505005004 60 0 0.0 0.0 0.00 0.00 0.00 65 1017.7
20260505004903 60 0 0.0 0.0 0.00 0.00 0.00 65 1017.8
20260505004803 60 0 0.0 0.0 0.00 0.00 0.00 65 1017.7
20260505004703 60 0 0.0 0.0 0.00 0.00 0.00 65 1017.8
20260505004603 60 0 0.0 0.0 0.00 0.00 0.00 66 1017.9
20260505004503 60 0 0.0 0.0 0.00 0.00 0.00 66 1017.8
20260505004403 60 0 0.0 0.0 0.00 0.00 0.00 66 1017.8
20260505004303 60 0 0.0 0.0 0.00 0.00 0.00 66 1017.8
20260505004203 60 0 0.0 0.0 0.00 0.00 0.00 67 1017.8
20260505004103 60 0 0.0 0.0 0.00 0.00 0.00 67 1017.8
20260505004003 60 0 0.0 0.0 0.00 0.00 0.00 67 1017.8
20260505003903 60 0 0.0 0.0 0.00 0.00 0.00 67 1017.8
20260505003803 60 0 0.0 0.0 0.00 0.00 0.00 67 1017.8
20260505003703 60 0 0.0 0.0 0.00 0.00 0.00 67 1017.9
20260505003603 60 0 0.0 0.0 0.00 0.00 0.00 68 1017.7
20260505003503 60 0 0.0 0.0 0.00 0.00 0.00 68 1017.7
20260505003403 60 0 0.0 0.0 0.00 0.00 0.00 68 1017.7
20260505003303 60 0 0.0 0.0 0.00 0.00 0.00 68 1017.8
20260505003203 60 0 0.0 0.0 0.00 0.00 0.00 68 1017.9
20260505003103 60 0 0.0 0.0 0.00 0.00 0.00 68 1017.8
20260505003003 60 0 0.0 0.0 0.00 0.00 0.00 68 1017.9
20260505002903 60 0 0.0 0.0 0.00 0.00 0.00 68 1017.9
20260505002803 60 0 0.0 0.0 0.00 0.00 0.00 68 1017.9
20260505002703 60 0 0.0 0.0 0.00 0.00 0.00 69 1018.0
20260505002603 60 0 0.0 0.0 0.00 0.00 0.00 69 1018.0
20260505002503 60 0 0.0 0.0 0.00 0.00 0.00 69 1017.9
20260505002403 60 0 0.0 0.0 0.00 0.00 0.00 69 1017.9
20260505002304 60 0 0.0 0.0 0.00 0.00 0.00 69 1017.9
20260505002203 60 0 0.0 0.0 0.00 0.00 0.00 69 1017.9
20260505002103 60 0 0.0 0.0 0.00 0.00 0.00 69 1017.9
20260505002003 60 0 0.0 0.0 0.00 0.00 0.00 69 1018.0
20260505001903 60 0 0.0 0.0 0.00 0.00 0.00 69 1018.0
20260505001803 60 0 0.0 0.0 0.00 0.00 0.00 69 1018.0
20260505001703 60 0 0.0 0.0 0.00 0.00 0.00 69 1018.0
20260505001603 60 0 0.0 0.0 0.00 0.00 0.00 69 1018.0
20260505001503 60 0 0.0 0.0 0.00 0.00 0.00 69 1018.0
20260505001403 60 0 0.0 0.0 0.00 0.00 0.00 69 1018.1
20260505001303 60 0 0.0 0.0 0.00 0.00 0.00 69 1018.0
20260505001203 60 0 0.0 0.0 0.00 0.00 0.00 69 1018.0
20260505001103 60 0 0.0 0.0 0.00 0.00 0.00 69 1018.0
20260505001003 60 0 0.0 0.0 0.00 0.00 0.00 69 1018.0
20260505000903 60 0 0.0 0.0 0.00 0.00 0.00 69 1018.1
20260505000803 60 0 0.0 0.0 0.00 0.00 0.00 70 1018.1
20260505000703 60 0 0.0 0.0 0.00 0.00 0.00 70 1018.2
20260505000604 60 0 0.0 0.0 0.00 0.00 0.00 70 1018.2
20260505000504 60 0 0.0 0.0 0.00 0.00 0.00 70 1018.1
20260505000405 60 0 0.0 0.0 0.00 0.00 0.00 70 1018.1
20260505000304 60 0 0.0 0.0 0.00 0.00 0.00 70 1018.1
20260505000204 60 0 0.0 0.0 0.00 0.00 0.00 70 1018.3
20260505000104 60 0 0.0 0.0 0.00 0.00 0.00 70 1018.2
20260505000004 60 0 0.0 0.0 0.00 0.00 0.00 70 1018.2
20260504235904 60 0 0.0 0.0 0.00 0.00 0.00 70 1018.2
20260504235804 60 0 0.0 0.0 0.00 0.00 0.00 70 1018.2
20260504235704 60 0 0.0 0.0 0.00 0.00 0.00 70 1018.3
20260504235604 60 0 0.0 0.0 0.00 0.00 0.00 70 1018.3
20260504235504 60 0 0.0 0.0 0.00 0.00 0.00 70 1018.2
20260504235404 60 0 0.0 0.0 0.00 0.00 0.00 70 1018.3
20260504235304 60 0 0.0 0.0 0.00 0.00 0.00 70 1018.2
20260504235204 60 0 0.0 0.0 0.00 0.00 0.00 70 1018.3
20260504235104 60 0 0.0 0.0 0.00 0.00 0.00 70 1018.3
20260504235004 60 0 0.0 0.0 0.00 0.00 0.00 70 1018.3
20260504234904 60 0 0.0 0.0 0.00 0.00 0.00 70 1018.3
20260504234804 60 0 0.0 0.0 0.00 0.00 0.00 70 1018.2
20260504234704 60 0 0.0 0.0 0.00 0.00 0.00 70 1018.4
20260504234604 60 0 0.0 0.0 0.00 0.00 0.00 70 1018.4
20260504234504 60 0 0.0 0.0 0.00 0.00 0.00 70 1018.4
20260504234404 60 0 0.0 0.0 0.00 0.00 0.00 70 1018.4
20260504234304 60 0 0.0 0.0 0.00 0.00 0.00 70 1018.5
20260504234204 60 0 0.0 0.0 0.00 0.00 0.00 70 1018.5
20260504234104 60 0 0.0 0.0 0.00 0.00 0.00 70 1018.6
20260504234004 60 0 0.0 0.0 0.00 0.00 0.00 70 1018.6
20260504233904 60 0 0.0 0.0 0.00 0.00 0.00 70 1018.6
20260504233804 60 0 0.0 0.0 0.00 0.00 0.00 70 1018.6
20260504233704 60 0 0.0 0.0 0.00 0.00 0.00 70 1018.7
20260504233604 60 0 0.0 0.0 0.00 0.00 0.00 70 1018.7
20260504233504 60 0 0.0 0.0 0.00 0.00 0.00 70 1018.7
20260504233404 60 0 0.0 0.0 0.00 0.00 0.00 70 1018.7
20260504233304 60 0 0.0 0.0 0.00 0.00 0.00 70 1018.6
20260504233204 60 0 0.0 0.0 0.00 0.00 0.00 70 1018.6
20260504233104 60 0 0.0 0.0 0.00 0.00 0.00 70 1018.7
20260504233004 60 0 0.0 0.0 0.00 0.00 0.00 70 1018.7
20260504232904 60 0 0.0 0.0 0.00 0.00 0.00 70 1018.8
20260504232804 60 0 0.0 0.0 0.00 0.00 0.00 71 1018.7
20260504232704 60 0 0.0 0.0 0.00 0.00 0.00 71 1018.6
20260504232604 60 0 0.0 0.0 0.00 0.00 0.00 71 1018.7
20260504232504 60 0 0.0 0.0 0.00 0.00 0.00 71 1018.8
20260504232404 60 0 0.0 0.0 0.00 0.00 0.00 71 1018.8
20260504232304 60 0 0.0 0.0 0.00 0.00 0.00 71 1018.8
20260504232204 60 0 0.0 0.0 0.00 0.00 0.00 71 1018.8
20260504232104 60 0 0.0 0.0 0.00 0.00 0.00 71 1018.8
20260504232004 60 0 0.0 0.0 0.00 0.00 0.00 71 1018.8
20260504231903 60 0 0.0 0.0 0.00 0.00 0.00 71 1018.9
20260504231804 60 0 0.0 0.0 0.00 0.00 0.00 71 1018.7
20260504231704 60 0 0.0 0.0 0.00 0.00 0.00 71 1018.7
20260504231603 60 0 0.0 0.0 0.00 0.00 0.00 71 1018.7
20260504231504 60 0 0.0 0.0 0.00 0.00 0.00 71 1018.8
20260504231404 60 0 0.0 0.0 0.00 0.00 0.00 71 1018.7
20260504231303 60 0 0.0 0.0 0.00 0.00 0.00 71 1018.7
20260504231204 60 0 0.0 0.0 0.00 0.00 0.00 71 1018.8
20260504231003 60 0 0.0 0.0 0.00 0.00 0.00 71 1018.8
20260504230903 60 0 0.0 0.0 0.00 0.00 0.00 71 1018.9
20260504230803 60 0 0.0 0.0 0.00 0.00 0.00 71 1018.9
20260504230703 60 0 0.0 0.0 0.00 0.00 0.00 71 1018.8
20260504230603 60 0 0.0 0.0 0.00 0.00 0.00 71 1018.8
20260504230503 60 0 0.0 0.0 0.00 0.00 0.00 71 1018.9
20260504230403 60 0 0.0 0.0 0.00 0.00 0.00 71 1018.9
20260504230303 60 0 0.0 0.0 0.00 0.00 0.00 71 1018.9
20260504230203 60 0 0.0 0.0 0.00 0.00 0.00 71 1018.8
20260504230003 60 0 0.0 0.0 0.00 0.00 0.00 71 1018.9
20260504225903 60 0 0.0 0.0 0.00 0.00 0.00 71 1018.8
20260504225804 60 0 0.0 0.0 0.00 0.00 0.00 71 1018.8
20260504225703 60 0 0.0 0.0 0.00 0.00 0.00 71 1018.9
20260504225603 60 0 0.0 0.0 0.00 0.00 0.00 71 1018.9
20260504225503 60 0 0.0 0.0 0.00 0.00 0.00 71 1018.9
20260504225403 60 0 0.0 0.0 0.00 0.00 0.00 71 1018.9
20260504225304 60 0 0.0 0.0 0.00 0.00 0.00 71 1018.9
20260504225203 60 0 0.0 0.0 0.00 0.00 0.00 71 1018.9
20260504225103 60 0 0.0 0.0 0.00 0.00 0.00 72 1018.9
20260504225003 60 0 0.0 0.0 0.00 0.00 0.00 72 1018.9
20260504224903 60 0 0.0 0.0 0.00 0.00 0.00 72 1018.9
20260504224803 60 0 0.0 0.0 0.00 0.00 0.00 72 1018.9
20260504224703 60 0 0.0 0.0 0.00 0.00 0.00 72 1018.9
20260504224603 60 0 0.0 0.0 0.00 0.00 0.00 72 1018.9
20260504224503 60 0 0.0 0.0 0.00 0.00 0.00 72 1018.9
20260504224403 60 0 0.0 0.0 0.00 0.00 0.00 72 1018.9
20260504224303 60 0 0.0 0.0 0.00 0.00 0.00 72 1018.9
20260504224203 60 0 0.0 0.0 0.00 0.00 0.00 72 1018.9
20260504224103 60 0 0.0 0.0 0.00 0.00 0.00 72 1019.0
20260504224003 60 0 0.0 0.0 0.00 0.00 0.00 72 1018.9
20260504223903 60 0 0.0 0.0 0.00 0.00 0.00 72 1018.9
20260504223803 60 0 0.0 0.0 0.00 0.00 0.00 72 1019.0
20260504223703 60 0 0.0 0.0 0.00 0.00 0.00 72 1018.9
20260504223603 60 0 0.0 0.0 0.00 0.00 0.00 72 1019.0
20260504223503 60 0 0.0 0.0 0.00 0.00 0.00 72 1019.0
20260504223403 60 0 0.0 0.0 0.00 0.00 0.00 72 1019.0
20260504223303 60 0 0.0 0.0 0.00 0.00 0.00 72 1019.0
20260504223203 60 0 0.0 0.0 0.00 0.00 0.00 72 1019.0
20260504223103 60 0 0.0 0.0 0.00 0.00 0.00 72 1019.0
20260504223003 60 0 0.0 0.0 0.00 0.00 0.00 72 1019.0
20260504222903 61 0 0.0 0.0 0.00 0.00 0.00 72 1019.0
20260504222804 61 0 0.0 0.0 0.00 0.00 0.00 72 1019.1
20260504222704 61 0 0.0 0.0 0.00 0.00 0.00 72 1019.0
20260504222604 61 0 0.0 0.0 0.00 0.00 0.00 72 1019.0
20260504222504 61 0 0.0 0.0 0.00 0.00 0.00 72 1019.1
20260504222404 61 0 0.0 0.0 0.00 0.00 0.00 72 1019.1
20260504222305 61 0 0.0 0.0 0.00 0.00 0.00 72 1019.2
20260504222204 61 0 0.0 0.0 0.00 0.00 0.00 72 1019.2
20260504222104 61 0 0.0 0.0 0.00 0.00 0.00 72 1019.1
20260504222004 61 0 0.0 0.0 0.00 0.00 0.00 72 1019.2
20260504221904 61 0 0.0 0.0 0.00 0.00 0.00 72 1019.1
20260504221804 61 0 0.0 0.0 0.00 0.00 0.00 72 1019.1
20260504221704 61 0 0.0 0.0 0.00 0.00 0.00 72 1019.2
20260504221605 61 0 0.0 0.0 0.00 0.00 0.00 72 1019.2
20260504221504 61 0 0.0 0.0 0.00 0.00 0.00 72 1019.2
20260504221404 61 0 0.0 0.0 0.00 0.00 0.00 72 1019.1
20260504221304 61 0 0.0 0.0 0.00 0.00 0.00 72 1019.1
20260504221204 61 0 0.0 0.0 0.00 0.00 0.00 71 1019.1
20260504221104 61 0 0.0 0.0 0.00 0.00 0.00 71 1019.1
20260504221004 61 0 0.0 0.0 0.00 0.00 0.00 71 1019.1
20260504220904 61 0 0.0 0.0 0.00 0.00 0.00 71 1019.1
20260504220804 61 0 0.0 0.0 0.00 0.00 0.00 71 1019.1
20260504220704 61 0 0.0 0.0 0.00 0.00 0.00 71 1019.1
20260504220604 61 0 0.0 0.0 0.00 0.00 0.00 71 1019.2
20260504220504 61 0 0.0 0.0 0.00 0.00 0.00 71 1019.0
20260504220404 61 0 0.0 0.0 0.00 0.00 0.00 71 1019.0
20260504220304 61 0 0.0 0.0 0.00 0.00 0.00 71 1019.1
20260504220204 61 0 0.0 0.0 0.00 0.00 0.00 71 1019.1
20260504220104 61 0 0.0 0.0 0.00 0.00 0.00 71 1019.1
20260504220041 61 0 0.0 0.0 0.00 0.00 0.00 71 1019.1
20260504215904 61 0 0.0 0.0 0.00 0.00 0.00 71 1019.0
20260504215804 61 0 0.0 0.0 0.00 0.00 0.00 71 1019.1
20260504215704 61 0 0.0 0.0 0.00 0.00 0.00 71 1019.1
20260504215604 61 0 0.0 0.0 0.00 0.00 0.00 71 1019.1
20260504215504 61 0 0.0 0.0 0.00 0.00 0.00 71 1019.2
20260504215404 61 0 0.0 0.0 0.00 0.00 0.00 71 1019.0
20260504215305 61 0 0.0 0.0 0.00 0.00 0.00 71 1019.1
20260504215204 61 0 0.0 0.0 0.00 0.00 0.00 71 1019.1
20260504215104 61 0 0.0 0.0 0.00 0.00 0.00 71 1019.1
20260504215004 61 0 0.0 0.0 0.00 0.00 0.00 71 1019.0
20260504214904 61 0 0.0 0.0 0.00 0.00 0.00 71 1019.1
20260504214804 61 0 0.0 0.0 0.00 0.00 0.00 71 1019.1
20260504214704 61 0 0.0 0.0 0.00 0.00 0.00 71 1019.1
20260504214604 61 0 0.0 0.0 0.00 0.00 0.00 71 1019.1
20260504214504 61 0 0.0 0.0 0.00 0.00 0.00 72 1019.1
20260504214404 61 0 0.0 0.0 0.00 0.00 0.00 72 1019.1
20260504214304 61 0 0.0 0.0 0.00 0.00 0.00 72 1019.1
20260504214204 61 0 0.0 0.0 0.00 0.00 0.00 72 1019.1
20260504214104 61 0 0.0 0.0 0.00 0.00 0.00 72 1019.2
20260504214004 61 0 0.0 0.0 0.00 0.00 0.00 72 1019.2
20260504213904 61 0 0.0 0.0 0.00 0.00 0.00 72 1019.2
20260504213804 61 0 0.0 0.0 0.00 0.00 0.00 72 1019.2
20260504213704 61 0 0.0 0.0 0.00 0.00 0.00 72 1019.3
20260504213604 61 0 0.0 0.0 0.00 0.00 0.00 72 1019.3
20260504213503 61 0 0.0 0.0 0.00 0.00 0.00 72 1019.2
20260504213403 61 0 0.0 0.0 0.00 0.00 0.00 72 1019.1
20260504213303 61 0 0.0 0.0 0.00 0.00 0.00 72 1019.2
20260504213204 61 0 0.0 0.0 0.00 0.00 0.00 72 1019.1
20260504213103 61 0 0.0 0.0 0.00 0.00 0.00 71 1019.2
20260504213004 61 0 0.0 0.0 0.00 0.00 0.00 71 1019.2
20260504212904 61 0 0.0 0.0 0.00 0.00 0.00 71 1019.3
20260504212803 61 0 0.0 0.0 0.00 0.00 0.00 71 1019.1
20260504212703 62 0 0.0 0.0 0.00 0.00 0.00 71 1019.1
20260504212603 62 0 0.0 0.0 0.00 0.00 0.00 71 1019.2
20260504212503 62 0 0.0 0.0 0.00 0.00 0.00 71 1019.2
20260504212403 62 0 0.0 0.0 0.00 0.00 0.00 71 1019.2
20260504212304 62 0 0.0 0.0 0.00 0.00 0.00 71 1019.2
20260504212204 62 0 0.0 0.0 0.00 0.00 0.00 71 1019.2
20260504212103 62 0 0.0 0.0 0.00 0.00 0.00 71 1019.1
20260504212003 62 0 0.0 0.0 0.00 0.00 0.00 71 1019.2
20260504211903 62 0 0.0 0.0 0.00 0.00 0.00 71 1019.2
20260504211803 62 0 0.0 0.0 0.00 0.00 0.00 71 1019.2
20260504211703 62 0 0.0 0.0 0.00 0.00 0.00 71 1019.1
20260504211603 62 0 0.0 0.0 0.00 0.00 0.00 71 1019.1
20260504211503 62 0 0.0 0.0 0.00 0.00 0.00 71 1019.2
20260504211403 62 0 0.0 0.0 0.00 0.00 0.00 71 1019.1
20260504211303 62 0 0.0 0.0 0.00 0.00 0.00 71 1019.2
20260504211203 62 0 0.0 0.0 0.00 0.00 0.00 71 1019.1
20260504211103 62 0 0.0 0.0 0.00 0.00 0.00 71 1019.0
20260504211003 62 0 0.0 0.0 0.00 0.00 0.00 71 1019.2
20260504210903 62 0 0.0 0.0 0.00 0.00 0.00 71 1019.2
20260504210803 62 0 0.0 0.0 0.00 0.00 0.00 71 1019.2
20260504210703 62 0 0.0 0.0 0.00 0.00 0.00 71 1019.2
20260504210603 62 0 0.0 0.0 0.00 0.00 0.00 71 1019.1
20260504210503 62 0 0.0 0.0 0.00 0.00 0.00 71 1019.0
20260504210403 62 0 0.0 0.0 0.00 0.00 0.00 71 1019.1
20260504210303 62 0 0.0 0.0 0.00 0.00 0.00 71 1019.1
20260504210204 62 0 0.0 0.0 0.00 0.00 0.00 71 1019.0
20260504210004 62 0 0.0 0.0 0.00 0.00 0.00 71 1019.1
20260504205903 62 0 0.0 0.0 0.00 0.00 0.00 71 1019.1
20260504205803 62 0 0.0 0.0 0.00 0.00 0.00 71 1019.2
20260504205703 62 0 0.0 0.0 0.00 0.00 0.00 71 1019.2
20260504205603 62 0 0.0 0.0 0.00 0.00 0.00 71 1019.2
20260504205503 62 0 0.0 0.0 0.00 0.00 0.00 71 1019.3
20260504205403 62 0 0.0 0.0 0.00 0.00 0.00 72 1019.1
20260504205304 62 0 0.0 0.0 0.00 0.00 0.00 72 1019.1
20260504205203 62 0 0.0 0.0 0.00 0.00 0.00 72 1019.1
20260504205103 62 0 0.0 0.0 0.00 0.00 0.00 72 1019.1
20260504205003 62 0 0.0 0.0 0.00 0.00 0.00 72 1019.1
20260504204903 62 0 0.0 0.0 0.00 0.00 0.00 72 1019.1
20260504204803 62 0 0.0 0.0 0.00 0.00 0.00 72 1019.2
20260504204703 62 0 0.0 0.0 0.00 0.00 0.00 72 1019.1
20260504204603 62 0 0.0 0.0 0.00 0.00 0.00 72 1019.1
20260504204503 62 0 0.0 0.0 0.00 0.00 0.00 72 1019.2
20260504204403 62 0 0.0 0.0 0.00 0.00 0.00 72 1019.2
20260504204303 62 0 0.0 0.0 0.00 0.00 0.00 72 1019.2
20260504204203 62 0 0.0 0.0 0.00 0.00 0.00 72 1019.3
20260504204103 62 0 0.0 0.0 0.00 0.00 0.00 72 1019.3
20260504204003 62 0 0.0 0.0 0.00 0.00 0.00 72 1019.3
20260504203903 62 0 0.0 0.0 0.00 0.00 0.00 72 1019.3
20260504203803 62 0 0.0 0.0 0.00 0.00 0.00 72 1019.3
20260504203703 62 0 0.0 0.0 0.00 0.00 0.00 72 1019.2
20260504203603 62 0 0.0 0.0 0.00 0.00 0.00 72 1019.2
20260504203503 62 0 0.0 0.0 0.00 0.00 0.00 72 1019.3
20260504203403 62 0 0.0 0.0 0.00 0.00 0.00 72 1019.2
20260504203303 62 0 0.0 0.0 0.00 0.00 0.00 72 1019.2
20260504203203 62 0 0.0 0.0 0.00 0.00 0.00 72 1019.2
20260504203103 62 0 0.0 0.0 0.00 0.00 0.00 72 1019.2
20260504203003 62 0 0.0 0.0 0.00 0.00 0.00 72 1019.3
20260504202903 62 0 0.0 0.0 0.00 0.00 0.00 72 1019.4
20260504202803 62 292 0.0 1.0 0.00 0.00 0.00 72 1019.3
20260504202703 62 292 0.0 3.0 0.00 0.00 0.00 72 1019.3
20260504202603 62 292 0.0 3.0 0.00 0.00 0.00 72 1019.3
20260504202503 62 292 0.0 3.0 0.00 0.00 0.00 72 1019.4
20260504202403 62 292 0.0 3.0 0.00 0.00 0.00 72 1019.3
20260504202304 62 292 0.0 3.0 0.00 0.00 0.00 72 1019.4
20260504202203 62 292 0.0 3.0 0.00 0.00 0.00 72 1019.4
20260504202103 62 292 0.0 3.0 0.00 0.00 0.00 72 1019.4
20260504202003 62 292 0.0 3.0 0.00 0.00 0.00 72 1019.3
20260504201903 62 292 0.0 3.0 0.00 0.00 0.00 72 1019.4
20260504201803 62 292 0.0 3.0 0.00 0.00 0.00 72 1019.4
20260504201703 62 292 0.0 2.0 0.00 0.00 0.00 72 1019.4
20260504201603 63 292 0.0 2.0 0.00 0.00 0.00 72 1019.4
20260504201503 63 292 0.0 2.0 0.00 0.00 0.00 72 1019.4
20260504201403 63 292 0.0 2.0 0.00 0.00 0.00 72 1019.4
20260504201303 63 292 0.0 2.0 0.00 0.00 0.00 72 1019.4
20260504201203 63 292 0.0 2.0 0.00 0.00 0.00 72 1019.2
20260504201103 63 292 0.0 2.0 0.00 0.00 0.00 72 1019.4
20260504201003 63 292 0.0 2.0 0.00 0.00 0.00 72 1019.3
20260504200903 63 292 0.0 2.0 0.00 0.00 0.00 72 1019.3
20260504200803 63 292 0.0 2.0 0.00 0.00 0.00 72 1019.3
20260504200703 63 292 0.0 2.0 0.00 0.00 0.00 72 1019.3
20260504200603 63 292 0.0 2.0 0.00 0.00 0.00 72 1019.4
20260504200503 63 292 0.0 2.0 0.00 0.00 0.00 72 1019.4
20260504200403 63 292 0.0 2.0 0.00 0.00 0.00 72 1019.3
20260504200303 63 292 0.0 2.0 0.00 0.00 0.00 72 1019.4
20260504200203 63 292 0.0 2.0 0.00 0.00 0.00 72 1019.3
20260504200003 63 292 0.0 1.0 0.00 0.00 0.00 72 1019.3
20260504195903 63 0 0.0 0.0 0.00 0.00 0.00 72 1019.3
20260504195803 63 0 0.0 0.0 0.00 0.00 0.00 72 1019.2
20260504195703 63 0 0.0 0.0 0.00 0.00 0.00 72 1019.2
20260504195604 63 0 0.0 0.0 0.00 0.00 0.00 72 1019.3
20260504195503 63 0 0.0 0.0 0.00 0.00 0.00 72 1019.2
20260504195403 63 0 0.0 0.0 0.00 0.00 0.00 72 1019.2
20260504195304 63 0 0.0 0.0 0.00 0.00 0.00 72 1019.3
20260504195204 63 0 0.0 0.0 0.00 0.00 0.00 72 1019.3
20260504195104 63 0 0.0 0.0 0.00 0.00 0.00 72 1019.4
20260504195004 63 0 0.0 0.0 0.00 0.00 0.00 72 1019.4
20260504194904 63 0 0.0 0.0 0.00 0.00 0.00 72 1019.3
20260504194804 63 0 0.0 0.0 0.00 0.00 0.00 72 1019.5
20260504194704 63 0 0.0 0.0 0.00 0.00 0.00 72 1019.6
20260504194604 63 0 0.0 0.0 0.00 0.00 0.00 72 1019.6
20260504194504 63 0 0.0 0.0 0.00 0.00 0.00 72 1019.5
20260504194404 63 0 0.0 0.0 0.00 0.00 0.00 72 1019.5
20260504194304 63 0 0.0 0.0 0.00 0.00 0.00 72 1019.6
20260504194204 63 0 0.0 0.0 0.00 0.00 0.00 72 1019.6
20260504194104 63 0 0.0 0.0 0.00 0.00 0.00 72 1019.6
20260504194004 63 0 0.0 0.0 0.00 0.00 0.00 72 1019.7
20260504193904 63 0 0.0 0.0 0.00 0.00 0.00 72 1019.6
20260504193804 63 0 0.0 0.0 0.00 0.00 0.00 72 1019.5
20260504193704 63 0 0.0 0.0 0.00 0.00 0.00 72 1019.5
20260504193604 63 0 0.0 0.0 0.00 0.00 0.00 72 1019.4
20260504193504 63 292 0.0 1.0 0.00 0.00 0.00 72 1019.5
20260504193404 63 292 0.0 1.0 0.00 0.00 0.00 72 1019.5
20260504193304 63 292 0.0 1.0 0.00 0.00 0.00 72 1019.4
20260504193204 63 292 0.0 1.0 0.00 0.00 0.00 71 1019.4
20260504193104 64 292 0.0 1.0 0.00 0.00 0.00 71 1019.4
20260504193004 64 292 0.0 2.0 0.00 0.00 0.00 71 1019.4
20260504192904 64 292 0.0 2.0 0.00 0.00 0.00 71 1019.4
20260504192804 64 292 0.0 2.0 0.00 0.00 0.00 71 1019.4
20260504192704 64 294 0.0 2.0 0.00 0.00 0.00 71 1019.3
20260504192604 64 294 0.0 2.0 0.00 0.00 0.00 71 1019.3
20260504192504 64 295 0.0 2.0 0.00 0.00 0.00 71 1019.4
20260504192404 64 295 0.0 2.0 0.00 0.00 0.00 71 1019.3
20260504192304 64 295 0.0 2.0 0.00 0.00 0.00 71 1019.3
20260504192204 64 295 0.0 2.0 0.00 0.00 0.00 71 1019.3
20260504192104 64 295 0.0 2.0 0.00 0.00 0.00 71 1019.4
20260504192004 64 296 0.0 2.0 0.00 0.00 0.00 71 1019.4
20260504191904 64 298 0.0 2.0 0.00 0.00 0.00 71 1019.3
20260504191804 64 308 0.0 2.0 0.00 0.00 0.00 71 1019.3
20260504191704 64 112 0.0 1.0 0.00 0.00 0.00 71 1019.3
20260504191604 64 112 0.0 1.0 0.00 0.00 0.00 70 1019.3
20260504191504 64 0 0.0 0.0 0.00 0.00 0.00 70 1019.3
20260504191404 64 0 0.0 0.0 0.00 0.00 0.00 70 1019.2
20260504191304 64 0 0.0 0.0 0.00 0.00 0.00 70 1019.2
20260504191204 64 0 0.0 0.0 0.00 0.00 0.00 70 1019.2
20260504191104 64 0 0.0 0.0 0.00 0.00 0.00 70 1019.2
20260504191004 64 0 0.0 0.0 0.00 0.00 0.00 70 1019.2
20260504190904 64 0 0.0 0.0 0.00 0.00 0.00 70 1019.2
20260504190804 64 0 0.0 0.0 0.00 0.00 0.00 70 1019.2
20260504190704 65 0 0.0 0.0 0.00 0.00 0.00 70 1019.2
20260504190603 65 0 0.0 0.0 0.00 0.00 0.00 70 1019.1
20260504190505 65 0 0.0 0.0 0.00 0.00 0.00 70 1019.1
20260504190404 65 0 0.0 0.0 0.00 0.00 0.00 70 1019.2
20260504190303 65 0 0.0 0.0 0.00 0.00 0.00 70 1019.1
20260504190204 65 0 0.0 0.0 0.00 0.00 0.00 70 1019.1
20260504190004 65 0 0.0 0.0 0.00 0.00 0.00 70 1019.1
20260504185903 65 0 0.0 0.0 0.00 0.00 0.00 70 1019.0
20260504185803 65 0 0.0 0.0 0.00 0.00 0.00 70 1019.1
20260504185703 65 0 0.0 0.0 0.00 0.00 0.00 70 1019.1
20260504185603 65 0 0.0 0.0 0.00 0.00 0.00 70 1019.1
20260504185503 65 0 0.0 0.0 0.00 0.00 0.00 70 1019.1
20260504185403 65 0 0.0 0.0 0.00 0.00 0.00 70 1019.1
20260504185304 65 0 0.0 0.0 0.00 0.00 0.00 70 1019.1
20260504185203 65 0 0.0 0.0 0.00 0.00 0.00 70 1018.9
20260504185103 65 0 0.0 0.0 0.00 0.00 0.00 70 1019.0
20260504185003 65 0 0.0 0.0 0.00 0.00 0.00 69 1019.0
20260504184903 65 0 0.0 0.0 0.00 0.00 0.00 69 1019.0
20260504184803 65 0 0.0 0.0 0.00 0.00 0.00 69 1018.9
20260504184703 65 0 0.0 0.0 0.00 0.00 0.00 69 1019.0
20260504184603 65 0 0.0 0.0 0.00 0.00 0.00 69 1018.9
20260504184503 65 0 0.0 0.0 0.00 0.00 0.00 69 1019.0
20260504184405 65 0 0.0 0.0 0.00 0.00 0.00 69 1019.0
20260504184303 65 0 0.0 0.0 0.00 0.00 0.00 69 1019.0
20260504184203 65 0 0.0 0.0 0.00 0.00 0.00 69 1018.9
20260504184103 65 0 0.0 0.0 0.00 0.00 0.00 69 1018.9
20260504184003 65 0 0.0 0.0 0.00 0.00 0.00 69 1019.0
20260504183903 65 0 0.0 0.0 0.00 0.00 0.00 69 1019.0
20260504183803 65 0 0.0 0.0 0.00 0.00 0.00 69 1019.0
20260504183703 65 0 0.0 0.0 0.00 0.00 0.00 69 1019.0
20260504183603 65 0 0.0 0.0 0.00 0.00 0.00 69 1018.9
20260504183503 66 0 0.0 0.0 0.00 0.00 0.00 69 1019.0
20260504183403 66 0 0.0 0.0 0.00 0.00 0.00 69 1018.9
20260504183303 66 0 0.0 0.0 0.00 0.00 0.00 69 1018.9
20260504183203 66 0 0.0 0.0 0.00 0.00 0.00 69 1018.8
20260504183103 66 0 0.0 0.0 0.00 0.00 0.00 68 1018.9
20260504183003 66 0 0.0 0.0 0.00 0.00 0.00 68 1018.9
20260504182903 66 0 0.0 0.0 0.00 0.00 0.00 68 1018.9
20260504182803 66 0 0.0 0.0 0.00 0.00 0.00 68 1018.9
20260504182703 66 0 0.0 0.0 0.00 0.00 0.00 68 1018.9
20260504182607 66 0 0.0 0.0 0.00 0.00 0.00 68 1018.9
20260504182503 66 0 0.0 0.0 0.00 0.00 0.00 68 1018.9
20260504182403 66 0 0.0 0.0 0.00 0.00 0.00 68 1018.8
20260504182304 66 0 0.0 0.0 0.00 0.00 0.00 68 1018.9
20260504182203 66 0 0.0 0.0 0.00 0.00 0.00 68 1018.8
20260504182103 66 0 0.0 0.0 0.00 0.00 0.00 67 1018.8
20260504182003 66 0 0.0 0.0 0.00 0.00 0.00 67 1018.8
20260504181903 66 0 0.0 0.0 0.00 0.00 0.00 67 1018.8
20260504181803 66 0 0.0 0.0 0.00 0.00 0.00 67 1018.7
20260504181703 67 0 0.0 0.0 0.00 0.00 0.00 67 1018.8
20260504181603 67 0 0.0 0.0 0.00 0.00 0.00 67 1018.7
20260504181503 67 0 0.0 0.0 0.00 0.00 0.00 67 1018.8
20260504181403 67 0 0.0 0.0 0.00 0.00 0.00 67 1018.7
20260504181303 67 0 0.0 0.0 0.00 0.00 0.00 67 1018.8
20260504181203 67 0 0.0 0.0 0.00 0.00 0.00 67 1018.8
20260504181103 67 0 0.0 0.0 0.00 0.00 0.00 67 1018.8
20260504181003 67 0 0.0 0.0 0.00 0.00 0.00 67 1018.6
20260504180903 67 0 0.0 0.0 0.00 0.00 0.00 66 1018.6
20260504180803 67 0 0.0 0.0 0.00 0.00 0.00 66 1018.7
20260504180703 67 0 0.0 0.0 0.00 0.00 0.00 66 1018.7
20260504180603 67 0 0.0 0.0 0.00 0.00 0.00 66 1018.7
20260504180503 67 0 0.0 0.0 0.00 0.00 0.00 66 1018.7
20260504180403 67 0 0.0 0.0 0.00 0.00 0.00 66 1018.6
20260504180303 67 0 0.0 0.0 0.00 0.00 0.00 66 1018.7
20260504180203 67 0 0.0 0.0 0.00 0.00 0.00 66 1018.7
20260504180103 67 0 0.0 0.0 0.00 0.00 0.00 66 1018.7
20260504180003 67 0 0.0 0.0 0.00 0.00 0.00 66 1018.6
20260504175903 67 0 0.0 0.0 0.00 0.00 0.00 66 1018.6
20260504175803 67 0 0.0 0.0 0.00 0.00 0.00 66 1018.6
20260504175703 67 0 0.0 0.0 0.00 0.00 0.00 65 1018.6
20260504175603 67 0 0.0 0.0 0.00 0.00 0.00 65 1018.6
20260504175503 67 0 0.0 0.0 0.00 0.00 0.00 65 1018.5
20260504175403 67 0 0.0 0.0 0.00 0.00 0.00 65 1018.5
20260504175304 67 0 0.0 0.0 0.00 0.00 0.00 65 1018.6
20260504175203 68 0 0.0 0.0 0.00 0.00 0.00 65 1018.6
20260504175103 68 0 0.0 0.0 0.00 0.00 0.00 65 1018.7
20260504175003 68 0 0.0 0.0 0.00 0.00 0.00 65 1018.6
20260504174903 68 0 0.0 0.0 0.00 0.00 0.00 65 1018.6
20260504174803 68 0 0.0 0.0 0.00 0.00 0.00 65 1018.6
20260504174703 68 0 0.0 0.0 0.00 0.00 0.00 65 1018.6
20260504174603 68 0 0.0 0.0 0.00 0.00 0.00 65 1018.6
20260504174503 68 0 0.0 0.0 0.00 0.00 0.00 65 1018.6
20260504174403 68 0 0.0 0.0 0.00 0.00 0.00 65 1018.5
20260504174303 68 0 0.0 0.0 0.00 0.00 0.00 65 1018.6
20260504174203 68 0 0.0 0.0 0.00 0.00 0.00 65 1018.6
20260504174104 68 0 0.0 0.0 0.00 0.00 0.00 65 1018.6
20260504174003 68 0 0.0 0.0 0.00 0.00 0.00 65 1018.6
20260504173903 68 0 0.0 0.0 0.00 0.00 0.00 65 1018.6
20260504173803 68 112 0.0 2.0 0.00 0.00 0.00 64 1018.6
20260504173703 68 112 0.0 2.0 0.00 0.00 0.00 64 1018.5
20260504173603 68 112 0.0 2.0 0.00 0.00 0.00 64 1018.5
20260504173503 68 112 0.0 2.0 0.00 0.00 0.00 64 1018.4
20260504173403 68 112 0.0 2.0 0.00 0.00 0.00 64 1018.5
20260504173303 68 112 0.0 2.0 0.00 0.00 0.00 64 1018.5
20260504173203 68 112 0.0 2.0 0.00 0.00 0.00 64 1018.5
20260504173103 68 112 0.0 2.0 0.00 0.00 0.00 64 1018.4
20260504173003 68 112 0.0 2.0 0.00 0.00 0.00 64 1018.5
20260504172903 68 112 0.0 2.0 0.00 0.00 0.00 64 1018.4
20260504172803 69 0 0.0 0.0 0.00 0.00 0.00 64 1018.4
20260504172703 69 0 0.0 0.0 0.00 0.00 0.00 64 1018.5
20260504172603 69 0 0.0 0.0 0.00 0.00 0.00 64 1018.5
20260504172503 69 0 0.0 0.0 0.00 0.00 0.00 64 1018.5
20260504172403 69 0 0.0 0.0 0.00 0.00 0.00 63 1018.4
20260504172304 69 0 0.0 0.0 0.00 0.00 0.00 63 1018.4
20260504172203 69 0 0.0 0.0 0.00 0.00 0.00 63 1018.5
20260504172103 69 0 0.0 0.0 0.00 0.00 0.00 63 1018.5
20260504172003 69 0 0.0 0.0 0.00 0.00 0.00 63 1018.5
20260504171903 69 0 0.0 0.0 0.00 0.00 0.00 63 1018.5
20260504171803 69 112 0.0 1.0 0.00 0.00 0.00 63 1018.6
20260504171703 69 112 0.0 1.0 0.00 0.00 0.00 63 1018.6
20260504171603 69 112 0.0 1.0 0.00 0.00 0.00 63 1018.5
20260504171503 69 112 0.0 1.0 0.00 0.00 0.00 63 1018.5
20260504171403 69 112 0.0 1.0 0.00 0.00 0.00 63 1018.5
20260504171303 69 112 0.0 1.0 0.00 0.00 0.00 63 1018.5
20260504171203 69 112 0.0 1.0 0.00 0.00 0.00 63 1018.4
20260504171103 69 112 0.0 2.0 0.00 0.00 0.00 63 1018.5
20260504171003 69 110 0.0 3.0 0.00 0.00 0.00 63 1018.5
20260504170903 69 110 0.0 3.0 0.00 0.00 0.00 63 1018.5
20260504170803 69 110 0.0 3.0 0.00 0.00 0.00 62 1018.4
20260504170703 69 110 0.0 3.0 0.00 0.00 0.00 62 1018.5
20260504170603 69 110 0.0 3.0 0.00 0.00 0.00 62 1018.4
20260504170504 69 110 0.0 3.0 0.00 0.00 0.00 62 1018.4
20260504170404 69 110 0.0 3.0 0.00 0.00 0.00 62 1018.5
20260504170304 69 110 0.0 3.0 0.00 0.00 0.00 62 1018.3
20260504170204 69 110 0.0 3.0 0.00 0.00 0.00 62 1018.4
20260504170104 69 109 0.0 3.0 0.00 0.00 0.00 62 1018.4
20260504160403 69 108 1.0 5.0 0.00 0.00 0.00 57 1018.5
20260504160303 69 108 1.0 5.0 0.00 0.00 0.00 57 1018.5
20260504160203 70 108 1.0 5.0 0.00 0.00 0.00 57 1018.4
20260504151103 69 110 0.0 4.0 0.00 0.00 0.00 55 1018.5
20260504151003 69 108 0.0 3.0 0.00 0.00 0.00 55 1018.6
20260504150903 69 108 0.0 3.0 0.00 0.00 0.00 56 1018.5
20260504150803 69 104 0.0 3.0 0.00 0.00 0.00 56 1018.5
20260504150703 69 115 0.0 5.0 0.00 0.00 0.00 56 1018.6
20260504150603 69 117 0.0 5.0 0.00 0.00 0.00 56 1018.5
20260504150503 69 116 0.0 5.0 0.00 0.00 0.00 56 1018.6
20260504150403 69 116 0.0 5.0 0.00 0.00 0.00 56 1018.6
20260504150303 69 116 0.0 5.0 0.00 0.00 0.00 56 1018.6
20260504150203 69 116 0.0 5.0 0.00 0.00 0.00 56 1018.6
20260504150103 69 116 0.0 5.0 0.00 0.00 0.00 56 1018.6
20260504141304 70 109 1.0 5.0 0.00 0.00 0.00 58 1018.9
20260504141204 70 104 1.0 5.0 0.00 0.00 0.00 58 1018.9
20260504141104 70 108 1.0 6.0 0.00 0.00 0.00 57 1019.0
20260504141004 70 114 1.0 6.0 0.00 0.00 0.00 57 1019.0
20260504140904 70 114 1.0 6.0 0.00 0.00 0.00 57 1019.0
20260504140804 70 112 1.0 6.0 0.00 0.00 0.00 57 1018.9
20260504140704 70 112 1.0 6.0 0.00 0.00 0.00 57 1019.1
20260504140604 70 110 1.0 6.0 0.00 0.00 0.00 57 1019.0
20260504140504 70 109 1.0 6.0 0.00 0.00 0.00 57 1019.0
20260504140404 70 111 1.0 6.0 0.00 0.00 0.00 57 1018.9
20260504140304 70 112 1.0 6.0 0.00 0.00 0.00 57 1019.0
20260504140204 70 116 1.0 6.0 0.00 0.00 0.00 57 1019.0
20260504140104 70 114 1.0 4.0 0.00 0.00 0.00 57 1019.0
20260504130803 70 157 1.0 5.0 0.00 0.00 0.00 62 1019.3
20260504130703 70 166 1.0 5.0 0.00 0.00 0.00 62 1019.4
20260504130603 70 174 1.0 5.0 0.00 0.00 0.00 62 1019.5
20260504130503 70 226 1.0 5.0 0.00 0.00 0.00 62 1019.5
20260504130403 70 242 1.0 4.0 0.00 0.00 0.00 62 1019.5
20260504130303 70 242 1.0 4.0 0.00 0.00 0.00 62 1019.6
20260504130203 70 211 1.0 4.0 0.00 0.00 0.00 62 1019.4
20260504130103 70 162 1.0 5.0 0.00 0.00 0.00 62 1019.6